Home   Weather   Richmond   Past weeks

Flag for Canada Past Weather in Richmond, British Columbia, Canada — Yesterday and Last 2 Weeks

52 °F

Mostly cloudy.

Feels Like: 51 °F
Forecast: 51 / 56 °F
Wind: 5 mph from Northeast

Location: Vancouver International Airport

Current Time: Oct 24, 2016 at 5:39:21 AM

Latest Report: Oct 24, 2016 at 5:00 AM

Visibility: 20 mi

Pressure: 29.67 "Hg

Humidity: 88%

Dew Point: 48 °F

Location of RichmondLocation

Past Weather in Richmond — Graph


Richmond Temperature Yesterday

Maximum temperature yesterday: 61 °F (at 3:00 PM)
Minimum temperature yesterday: 50 °F (at 5:53 AM)
Average temperature yesterday: 54 °F

High & Low Weather Summary for the Past Weeks

High61 °F (Oct 23, 3:00 PM)100% (Oct 9, 8:00 AM)30.30 "Hg (Oct 9, 8:00 AM)
Low36 °F (Oct 11, 4:00 AM)47% (Oct 11, 1:00 PM)29.00 "Hg (Oct 15, 6:00 PM)
Average51 °F85%29.81 "Hg
* Reported Oct 9 4:00 AM — Oct 24 4:00 AM, Richmond, Weather by CustomWeather, © 2016

Note: Actual official high and low records may vary slightly from our data, if they occured in-between our weather recording intervals... More about our weather records


Richmond Weather History for the Previous 24 Hours

Scroll right to see more
Time TempWeatherWind HumidityBarometerVisibility
4:00 AM
Mon, Oct 24
52 °FMostly cloudy.3 mph88%29.70 "Hg15 mi
3:00 AM52 °FOvercast.5 mph88%29.73 "Hg15 mi
2:00 AM55 °FMostly cloudy.7 mph72%29.71 "Hg15 mi
1:48 AM54 °FMostly cloudy.8 mph82%29.70 "Hg15 mi
1:00 AM52 °FMostly cloudy.5 mph94%29.76 "Hg15 mi
12:00 AM55 °FLight rain. Mostly cloudy.9 mph77%29.76 "Hg15 mi
11:00 PM
Sun, Oct 23
54 °FLight rain. Mostly cloudy.7 mph82%29.76 "Hg15 mi
10:00 PM52 °FLight rain. Mostly cloudy.3 mph88%29.78 "Hg15 mi
9:00 PM52 °FLight rain. Mostly cloudy.2 mph88%29.78 "Hg15 mi
8:51 PM54 °FLight rain. Mostly cloudy.5 mph82%29.79 "Hg20 mi
8:00 PM55 °FMostly cloudy.6 mph72%29.79 "Hg30 mi
7:00 PM54 °FMostly cloudy.10 mph82%29.81 "Hg30 mi
6:00 PM57 °FPartly sunny.8 mph67%29.83 "Hg30 mi
5:00 PM57 °FCloudy.7 mph67%29.84 "Hg30 mi
4:00 PM59 °FMostly cloudy.10 mph63%29.86 "Hg30 mi
3:00 PM61 °FBroken clouds.10 mph59%29.88 "Hg30 mi
2:00 PM59 °FBroken clouds.10 mph63%29.90 "Hg30 mi
1:00 PM57 °FCloudy.9 mph72%29.91 "Hg30 mi
12:00 PM57 °FCloudy.12 mph72%29.91 "Hg25 mi
11:00 AM54 °FCloudy.8 mph82%29.92 "Hg25 mi
10:00 AM54 °FMostly cloudy.9 mph82%29.90 "Hg20 mi
9:00 AM52 °FCloudy.7 mph88%29.89 "Hg20 mi
8:00 AM50 °FLight rain. Broken clouds.7 mph94%29.88 "Hg15 mi
7:00 AM50 °FLight rain. Mostly cloudy.8 mph94%29.88 "Hg15 mi
6:00 AM50 °FMostly cloudy.8 mph88%29.87 "Hg15 mi
5:53 AM50 °FMostly cloudy.8 mph88%29.87 "Hg15 mi
5:00 AM52 °FMostly cloudy.10 mph77%29.86 "Hg15 mi
Weather by CustomWeather, © 2016

See weather overviewHow to use our weather pages